Vorticity
nan nan nan nan nan nan nan nan nan nan nan nan nan nan nan nan nan nan nan nan nan nan nan nan nan nan nan nan nan nan nan nan nan nan nan nan nan nan nan nan nan nan nan
nan 11 9 10 9 9 9 9 8 11 10 10 10 11 10 10 10 9 8 6 9 9 9 8 8 10 10 6 8 11 9 9 11 11 8 10 11 13 12 11 10 11 nan
nan 8 8 10 9 8 8 9 9 9 10 12 11 9 10 11 11 11 10 9 8 8 10 8 9 8 9 7 8 10 9 10 9 12 12 9 12 12 7 11 13 11 nan
nan 10 9 6 8 10 9 10 11 10 11 11 11 11 11 11 12 12 13 10 9 11 10 8 8 11 10 6 9 10 9 8 9 8 10 9 7 10 9 8 7 8 nan
nan 9 7 9 9 8 9 9 11 11 11 10 11 11 12 14 13 13 12 12 12 11 11 12 10 13 11 9 9 12 9 6 8 9 7 6 7 11 10 6 8 8 nan
nan 8 9 10 11 10 9 9 10 11 11 12 12 12 12 11 9 13 12 13 15 15 11 13 13 13 13 14 7 9 11 7 6 7 9 9 7 7 11 8 6 8 nan
nan 9 10 9 9 10 10 11 11 11 12 13 13 13 13 12 11 11 12 12 18 17 13 10 10 11 13 12 12 10 10 9 10 9 7 8 10 10 7 7 8 9 nan
nan 8 9 10 10 10 10 10 13 12 12 13 12 13 16 11 8 10 16 23 21 17 16 12 11 9 12 12 12 11 12 11 12 15 18 12 10 14 12 10 5 4 nan
nan 10 10 9 10 10 11 11 12 13 12 11 12 12 12 10 8 9 20 25 21 19 16 14 12 11 15 12 7 9 5 5 12 13 14 22 21 12 10 8 12 4 nan
nan 8 8 10 10 9 10 11 12 12 13 12 11 12 11 9 7 11 21 24 18 16 16 19 16 12 15 10 6 9 6 8 6 6 6 10 19 22 13 6 8 3 nan
nan 9 9 9 9 9 11 10 9 12 11 11 12 13 11 10 5 7 19 24 19 16 13 12 19 20 15 12 9 10 14 10 7 8 9 8 9 9 7 16 19 16 nan
nan 10 10 11 10 8 9 10 9 11 12 11 13 13 9 4 6 10 13 14 27 28 14 17 21 29 23 13 11 18 15 6 8 9 8 8 9 8 10 12 13 15 nan
nan 10 11 11 10 10 10 11 10 10 11 12 12 10 10 11 3 5 15 14 21 23 16 16 22 20 13 18 22 14 3 7 10 9 8 9 11 12 10 8 9 8 nan
nan 11 12 9 10 13 12 11 10 11 11 10 11 11 11 11 11 14 15 11 10 13 14 11 10 9 9 10 6 6 12 15 13 10 11 10 11 11 10 10 9 5 nan
nan 10 13 12 11 11 11 10 11 10 12 15 14 14 12 12 9 12 22 23 19 15 13 10 11 10 8 9 10 13 14 13 14 13 12 10 11 10 10 11 10 11 nan
nan 12 11 11 11 11 11 9 8 5 5 10 16 21 13 8 16 15 13 17 22 26 19 11 11 11 13 13 12 12 13 13 13 12 11 12 11 11 10 12 13 14 nan
nan 13 11 11 11 10 11 10 8 7 4 2 5 9 13 14 16 17 14 9 12 20 15 12 12 12 11 12 12 12 12 13 13 13 12 12 11 12 12 11 12 11 nan
nan 13 14 10 10 11 11 11 11 10 9 6 2 4 5 10 10 14 20 14 5 9 12 11 12 12 13 11 12 12 12 12 13 13 12 12 12 12 11 11 12 12 nan
nan 12 12 12 11 11 12 11 11 11 11 11 8 6 3 5 6 6 17 18 9 9 10 11 11 11 12 13 12 11 12 13 12 11 11 12 13 12 11 12 12 12 nan
nan 10 15 14 11 11 12 11 11 11 11 11 11 10 11 10 8 6 8 11 11 10 11 10 10 10 11 11 11 12 11 11 12 12 12 12 12 12 11 11 12 10 nan
nan 7 11 14 11 12 12 11 12 11 11 11 8 6 15 16 11 11 11 11 11 11 11 12 11 11 10 10 12 12 11 11 12 13 12 12 12 12 12 12 12 12 nan
nan 11 11 12 11 11 12 12 12 11 11 11 10 6 11 15 11 10 10 11 11 12 12 12 12 11 11 11 12 11 11 12 12 12 12 12 12 12 12 12 11 12 nan
nan 11 12 11 10 12 13 12 11 12 12 11 11 11 10 11 11 11 11 10 11 11 12 11 12 13 12 12 12 12 11 11 12 12 12 11 11 11 11 12 11 12 nan
nan 11 11 11 11 10 10 12 11 11 12 12 12 11 11 11 10 11 11 11 11 11 11 11 9 11 15 14 13 13 12 15 14 13 13 14 13 13 12 11 12 11 nan
nan 12 11 11 11 11 11 11 11 11 11 11 11 11 11 11 11 11 12 12 11 10 12 12 9 9 11 12 12 12 13 15 17 16 12 11 11 12 12 12 12 10 nan
nan nan nan nan nan nan nan nan nan nan nan nan nan nan nan nan nan nan nan nan nan nan nan nan nan nan nan nan nan nan nan nan nan nan nan nan nan nan nan nan nan nan nan
CAPE
2 0 0 0 0 0 0 0 0 0 0 0 0 0 0 0 39 390 557 516 431 476 386 579 879 1171 1208 1103 907 686 546 356 312 371 76 45 24 19 11 6 0 0 0
2 1 1 0 0 0 0 0 0 0 0 0 0 0 0 0 0 0 38 295 281 233 223 110 144 460 689 487 177 272 476 138 30 209 136 61 26 11 13 3 0 0 0
1 0 0 1 0 0 0 0 0 0 0 0 0 0 0 0 0 0 0 2 118 90 130 58 20 369 495 415 30 42 158 5 3 8 65 39 13 14 1 0 0 2 0
2 2 2 1 0 0 0 0 0 0 0 0 0 0 0 0 0 0 1 4 14 74 108 301 53 93 445 347 13 32 34 3 2 3 17 14 3 3 0 1 0 0 1
2 3 3 2 0 1 0 0 3 4 2 0 1 0 1 0 0 3 8 17 24 48 70 114 43 9 11 53 3 33 23 7 3 5 8 10 3 2 0 2 0 0 1
2 0 2 2 0 1 0 1 3 5 7 6 6 9 10 5 0 0 0 2 30 49 100 35 26 0 0 0 0 0 1 11 4 2 10 10 2 1 2 1 0 0 0
3 1 1 1 0 0 0 2 5 9 13 9 6 4 5 9 0 0 0 4 6 52 152 41 22 2 0 0 1 0 0 0 0 2 16 10 1 2 1 0 0 0 0
7 4 3 4 2 2 2 5 8 9 8 9 8 10 12 7 0 0 0 0 4 8 42 58 27 5 0 0 0 0 0 0 0 0 32 24 2 3 1 0 0 0 0
8 7 4 4 3 3 6 6 9 8 8 5 5 8 9 7 1 2 2 1 4 15 22 14 10 10 0 1 0 0 1 1 0 1 1 0 0 0 0 0 0 0 0
14 10 4 5 5 6 8 7 8 7 7 8 3 5 7 5 4 7 5 3 6 1 0 4 0 10 0 1 0 0 0 0 1 1 1 1 1 0 0 0 0 0 0
17 11 11 8 8 8 12 8 5 6 10 15 10 6 6 6 6 6 6 3 4 1 1 1 1 1 2 1 0 0 0 0 1 0 0 0 0 1 1 1 0 0 0
5 7 6 20 9 9 10 13 10 8 9 17 24 21 10 6 3 4 5 3 2 0 1 1 0 2 1 1 1 1 1 0 0 0 0 0 0 0 0 0 0 0 0
9 8 19 23 26 25 21 26 21 25 21 16 20 25 31 15 15 3 5 4 1 1 0 0 0 0 0 1 1 0 0 0 0 0 0 1 1 1 1 0 0 0 0
8 20 20 22 16 23 28 34 26 27 30 32 25 22 30 38 36 8 6 5 1 1 0 0 0 0 0 0 0 0 0 0 0 0 0 0 0 0 1 0 0 0 0
7 10 11 16 27 29 29 17 19 19 34 34 39 26 32 37 33 14 9 4 5 1 0 0 0 0 0 0 0 0 0 0 0 1 1 0 0 0 0 0 0 0 0
9 10 10 11 11 16 17 20 4 2 4 10 11 24 25 16 9 6 10 6 5 3 0 1 0 0 0 0 0 0 0 0 0 0 0 0 0 0 0 0 0 0 0
6 9 9 10 12 12 16 15 12 17 3 3 8 10 12 13 12 9 9 9 8 0 0 0 0 0 0 0 0 0 0 0 0 0 0 0 0 0 0 0 0 0 1
14 7 15 15 16 14 17 19 17 15 15 19 6 8 9 11 7 7 5 1 5 6 6 1 0 1 0 0 0 0 0 0 0 0 0 0 0 0 1 1 0 0 0
14 11 11 15 9 10 11 12 12 11 12 11 7 4 13 6 2 1 2 17 13 6 7 5 6 9 9 5 3 0 0 0 0 0 1 0 1 2 2 3 5 7 7
12 3 4 6 7 7 7 8 10 10 10 11 11 14 9 5 19 21 18 18 9 10 8 5 4 4 5 7 7 6 3 3 2 3 4 5 8 8 10 9 8 6 3
16 10 2 4 3 4 6 6 7 11 13 12 15 11 5 11 12 11 9 11 5 8 8 7 4 4 4 4 7 11 9 10 9 10 12 8 12 13 10 10 8 4 2
13 10 7 6 5 7 5 5 9 9 9 12 14 10 3 16 13 10 10 11 9 3 9 7 8 6 5 5 7 7 7 10 10 7 7 6 6 7 5 4 3 3 1
14 14 9 7 9 5 10 7 8 11 12 14 14 13 13 17 15 12 12 13 9 8 5 3 4 5 7 8 5 3 3 6 5 5 4 4 3 3 3 2 1 0 0
16 18 10 13 13 14 17 17 14 4 9 13 16 17 16 13 13 8 6 7 6 6 5 3 2 7 1 3 2 1 1 3 3 3 3 3 2 1 1 1 0 0 1
18 18 16 17 19 19 19 18 19 19 17 17 16 17 13 13 10 11 7 4 2 3 1 1 1 0 0 0 0 0 0 0 2 0 2 1 1 0 0 0 0 0 0
12 13 16 17 17 17 20 17 16 15 16 18 17 18 16 12 12 8 5 2 2 1 1 2 1 0 0 0 0 0 0 0 0 0 2 1 1 1 1 0 0 0 0